Weather in Podyvotye

Russia / Bryansk Oblast     52°03′28″N   34°08′43″E
temp.,
°C
wind,
m/s
gust,
m/s
humid.,
%
clouds,
%
prec.,
mm/h
press.,
hPa
HPBL,
m
29 may, sun
sun2900:00+7wsw49905 0.0 1012149
03:00+6wsw359296 0.0 101297
06:00+8sw2586100 0.0 1013148
09:00+12sw587362 0.1 1014836
12:00+15sw675998 0.3 10141979
15:00+14wsw576656 0.3 10151361
18:00+14wnw3669100 0.0 1016730
21:00+10ssw118133 0.0 101710
30 may, mon
mon3000:00+8sse228527 0.0 101810
03:00+7se228871 0.0 101915
06:00+9se35885 0.0 1019108
09:00+14se577398 0.0 1019493
12:00+17se5666100 0.0 10181264
15:00+17se6977100 0.2 10161119
18:00+17sse61185100 0.1 1016833
21:00+15se5129594 0.9 1015400
31 may, tue
tue3100:00+15sse4119887 2.0 1015268
03:00+14s499999 3.9 1015234
06:00+15ssw2799100 1.3 1015403
09:00+16wsw2293100 1.4 1015347
12:00+17nw339199 0.2 1016342
15:00+17nnw458959 0.9 1017477
18:00+17nw69769 0.1 1017555
21:00+13nnw49894 0.1 1018186
1 june, wed
wed100:00+11nnw48930 0.0 1019128
03:00+9nnw37930 0.0 1020109
06:00+10n36900 0.0 1021132
09:00+16n457318 0.0 1021478
12:00+19ne3359100 0.0 10211082
15:00+20ene3357100 0.0 10201200
18:00+20e34689 0.0 10191119
21:00+15e22840 0.0 101911
2 june, thu
thu200:00+13ne118742 0.0 101910
03:00+13ese12905 0.0 101811
06:00+14wnw11892 0.0 101812
09:00+19wsw11731 0.0 1018462
12:00+22sw22575 0.0 10181132
15:00+23wsw345817 0.0 10171418
18:00+22wsw4672100 0.1 1017491
21:00+16wnw338798 0.2 101844